Year,Month,Day,Hour,Minute,Value (Times are PST for windgust in km/hr)
2015,08,28,00,00,4.80
2015,08,28,00,01,4.80
2015,08,28,00,02,4.80
2015,08,28,00,03,4.80
2015,08,28,00,04,3.20
2015,08,28,00,05,6.40
2015,08,28,00,09,3.20
2015,08,28,00,10,1.60
2015,08,28,00,11,1.60
2015,08,28,00,25,1.60
2015,08,28,00,26,3.20
2015,08,28,00,27,3.20
2015,08,28,00,28,3.20
2015,08,28,00,29,1.60
2015,08,28,00,31,1.60
2015,08,28,00,32,4.80
2015,08,28,00,33,1.60
2015,08,28,00,37,1.60
2015,08,28,00,38,3.20
2015,08,28,00,39,3.20
2015,08,28,00,40,1.60
2015,08,28,00,43,1.60
2015,08,28,00,44,3.20
2015,08,28,00,45,4.80
2015,08,28,00,46,3.20
2015,08,28,00,47,3.20
2015,08,28,00,48,4.80
2015,08,28,00,49,6.40
2015,08,28,00,50,8.10
2015,08,28,00,51,8.10
2015,08,28,00,52,8.10
2015,08,28,00,53,8.10
2015,08,28,00,54,8.10
2015,08,28,00,55,8.10
2015,08,28,00,56,6.40
2015,08,28,00,57,8.10
2015,08,28,00,58,8.10
2015,08,28,00,59,8.10
2015,08,28,01,00,6.40
2015,08,28,01,01,6.40
2015,08,28,01,02,6.40
2015,08,28,01,03,6.40
2015,08,28,01,04,6.40
2015,08,28,01,05,4.80
2015,08,28,01,06,4.80
2015,08,28,01,07,3.20
2015,08,28,01,08,1.60
2015,08,28,01,09,4.80
2015,08,28,01,10,4.80
2015,08,28,01,11,3.20
2015,08,28,01,12,4.80
2015,08,28,01,13,3.20
2015,08,28,01,14,3.20
2015,08,28,01,16,1.60
2015,08,28,01,19,1.60
2015,08,28,01,20,3.20
2015,08,28,01,21,4.80
2015,08,28,01,22,6.40
2015,08,28,01,23,6.40
2015,08,28,01,24,9.60
2015,08,28,01,25,6.40
2015,08,28,01,26,8.10
2015,08,28,01,27,6.40
2015,08,28,01,28,4.80
2015,08,28,01,29,3.20
2015,08,28,01,31,4.80
2015,08,28,01,32,8.10
2015,08,28,01,33,8.10
2015,08,28,01,34,8.10
2015,08,28,01,35,6.40
2015,08,28,01,36,8.10
2015,08,28,01,37,6.40
2015,08,28,01,38,6.40
2015,08,28,01,39,4.80
2015,08,28,01,40,4.80
2015,08,28,01,41,4.80
2015,08,28,01,42,3.20
2015,08,28,01,43,1.60
2015,08,28,01,44,1.60
2015,08,28,01,45,1.60
2015,08,28,01,46,3.20
2015,08,28,01,47,4.80
2015,08,28,01,48,3.20
2015,08,28,01,49,1.60
2015,08,28,01,50,1.60
2015,08,28,01,51,1.60
2015,08,28,01,52,3.20
2015,08,28,01,53,1.60
2015,08,28,01,54,1.60
2015,08,28,01,57,1.60
2015,08,28,01,58,1.60
2015,08,28,01,59,1.60
2015,08,28,02,00,1.60
2015,08,28,02,02,1.60
2015,08,28,02,16,1.60
2015,08,28,02,18,1.60
2015,08,28,02,19,3.20
2015,08,28,02,20,3.20
2015,08,28,02,21,4.80
2015,08,28,02,22,3.20
2015,08,28,02,23,3.20
2015,08,28,02,25,1.60
2015,08,28,02,27,1.60
2015,08,28,02,28,3.20
2015,08,28,02,29,4.80
2015,08,28,02,30,3.20
2015,08,28,02,31,3.20
2015,08,28,02,36,1.60
2015,08,28,02,37,3.20
2015,08,28,02,38,1.60
2015,08,28,02,39,3.20
2015,08,28,02,40,6.40
2015,08,28,02,41,9.60
2015,08,28,02,42,11.30
2015,08,28,02,43,8.10
2015,08,28,02,44,6.40
2015,08,28,02,45,8.10
2015,08,28,02,46,6.40
2015,08,28,02,47,6.40
2015,08,28,02,48,6.40
2015,08,28,02,49,6.40
2015,08,28,02,50,6.40
2015,08,28,02,51,6.40
2015,08,28,02,52,4.80
2015,08,28,02,53,4.80
2015,08,28,02,54,4.80
2015,08,28,02,55,4.80
2015,08,28,02,56,4.80
2015,08,28,02,57,6.40
2015,08,28,02,58,9.60
2015,08,28,02,59,6.40
2015,08,28,03,00,8.10
2015,08,28,03,01,6.40
2015,08,28,03,02,6.40
2015,08,28,03,03,8.10
2015,08,28,03,04,8.10
2015,08,28,03,05,8.10
2015,08,28,03,06,4.80
2015,08,28,03,07,3.20
2015,08,28,03,08,6.40
2015,08,28,03,09,4.80
2015,08,28,03,10,4.80
2015,08,28,03,11,3.20
2015,08,28,03,12,6.40
2015,08,28,03,13,6.40
2015,08,28,03,14,6.40
2015,08,28,03,15,8.10
2015,08,28,03,16,9.60
2015,08,28,03,17,6.40
2015,08,28,03,18,9.60
2015,08,28,03,19,9.60
2015,08,28,03,20,9.60
2015,08,28,03,21,8.10
2015,08,28,03,22,6.40
2015,08,28,03,23,9.60
2015,08,28,03,24,3.20
2015,08,28,03,25,4.80
2015,08,28,03,26,4.80
2015,08,28,03,27,1.60
2015,08,28,03,28,3.20
2015,08,28,03,29,4.80
2015,08,28,03,30,6.40
2015,08,28,03,31,3.20
2015,08,28,03,32,1.60
2015,08,28,03,33,3.20
2015,08,28,03,34,3.20
2015,08,28,03,35,8.10
2015,08,28,03,36,6.40
2015,08,28,03,37,6.40
2015,08,28,03,38,6.40
2015,08,28,03,39,6.40
2015,08,28,03,40,6.40
2015,08,28,03,41,3.20
2015,08,28,03,42,3.20
2015,08,28,03,43,4.80
2015,08,28,03,44,6.40
2015,08,28,03,45,4.80
2015,08,28,03,46,3.20
2015,08,28,03,49,1.60
2015,08,28,03,50,1.60
2015,08,28,04,02,1.60
2015,08,28,04,03,3.20
2015,08,28,04,04,3.20
2015,08,28,04,05,3.20
2015,08,28,04,06,1.60
2015,08,28,04,07,1.60
2015,08,28,04,08,1.60
2015,08,28,04,09,1.60
2015,08,28,04,10,3.20
2015,08,28,04,11,1.60
2015,08,28,04,12,1.60
2015,08,28,04,13,1.60
2015,08,28,04,14,1.60
2015,08,28,04,15,1.60
2015,08,28,04,16,6.40
2015,08,28,04,17,6.40
2015,08,28,04,18,4.80
2015,08,28,04,19,4.80
2015,08,28,04,20,4.80
2015,08,28,04,21,3.20
2015,08,28,04,22,1.60
2015,08,28,04,23,3.20
2015,08,28,04,24,1.60
2015,08,28,04,26,1.60
2015,08,28,04,27,1.60
2015,08,28,04,28,1.60
2015,08,28,04,29,1.60
2015,08,28,04,30,1.60
2015,08,28,04,31,1.60
2015,08,28,04,32,3.20
2015,08,28,04,33,3.20
2015,08,28,04,34,1.60
2015,08,28,04,35,1.60
2015,08,28,04,36,1.60
2015,08,28,04,39,1.60
2015,08,28,04,40,1.60
2015,08,28,04,49,1.60
2015,08,28,04,50,1.60
2015,08,28,04,51,3.20
2015,08,28,04,52,3.20
2015,08,28,04,53,1.60
2015,08,28,04,54,3.20
2015,08,28,04,55,1.60
2015,08,28,04,56,3.20
2015,08,28,04,57,3.20
2015,08,28,04,58,4.80
2015,08,28,04,59,4.80
2015,08,28,05,00,4.80
2015,08,28,05,01,3.20
2015,08,28,05,02,1.60
2015,08,28,05,05,1.60
2015,08,28,05,07,1.60
2015,08,28,05,08,1.60
2015,08,28,05,09,3.20
2015,08,28,05,10,3.20
2015,08,28,05,11,1.60
2015,08,28,05,12,1.60
2015,08,28,05,15,1.60
2015,08,28,05,16,1.60
2015,08,28,05,24,1.60
2015,08,28,05,25,1.60
2015,08,28,05,26,1.60
2015,08,28,05,27,1.60
2015,08,28,05,28,1.60
2015,08,28,05,35,1.60
2015,08,28,05,42,1.60
2015,08,28,05,43,1.60
2015,08,28,05,44,3.20
2015,08,28,05,45,1.60
2015,08,28,05,47,1.60
2015,08,28,05,49,1.60
2015,08,28,05,50,1.60
2015,08,28,05,53,1.60
2015,08,28,05,54,1.60
2015,08,28,05,56,1.60
2015,08,28,05,57,3.20
2015,08,28,05,58,3.20
2015,08,28,05,59,3.20
2015,08,28,06,00,3.20
2015,08,28,06,01,4.80
2015,08,28,06,02,4.80
2015,08,28,06,03,4.80
2015,08,28,06,04,3.20
2015,08,28,06,05,3.20
2015,08,28,06,06,3.20
2015,08,28,06,08,3.20
2015,08,28,06,09,3.20
2015,08,28,06,13,1.60
2015,08,28,06,14,3.20
2015,08,28,06,15,1.60
2015,08,28,06,16,1.60
2015,08,28,06,17,3.20
2015,08,28,06,18,1.60
2015,08,28,06,19,1.60
2015,08,28,06,20,1.60
2015,08,28,06,21,1.60
2015,08,28,06,22,1.60
2015,08,28,06,23,1.60
2015,08,28,06,24,1.60
2015,08,28,06,25,1.60
2015,08,28,06,26,1.60
2015,08,28,06,30,3.20
2015,08,28,06,31,3.20
2015,08,28,06,32,1.60
2015,08,28,06,33,1.60
2015,08,28,06,35,1.60
2015,08,28,06,36,1.60
2015,08,28,06,40,1.60
2015,08,28,06,41,3.20
2015,08,28,06,45,1.60
2015,08,28,06,46,1.60
2015,08,28,06,47,1.60
2015,08,28,06,48,1.60
2015,08,28,06,56,1.60
2015,08,28,07,00,1.60
2015,08,28,07,01,1.60
2015,08,28,07,02,1.60
2015,08,28,07,03,3.20
2015,08,28,07,04,4.80
2015,08,28,07,05,4.80
2015,08,28,07,06,4.80
2015,08,28,07,07,4.80
2015,08,28,07,08,4.80
2015,08,28,07,09,3.20
2015,08,28,07,10,4.80
2015,08,28,07,11,3.20
2015,08,28,07,12,3.20
2015,08,28,07,13,3.20
2015,08,28,07,14,4.80
2015,08,28,07,15,3.20
2015,08,28,07,16,4.80
2015,08,28,07,17,3.20
2015,08,28,07,18,3.20
2015,08,28,07,19,3.20
2015,08,28,07,20,1.60
2015,08,28,07,21,1.60
2015,08,28,07,23,3.20
2015,08,28,07,24,3.20
2015,08,28,07,25,1.60
2015,08,28,07,27,1.60
2015,08,28,07,28,1.60
2015,08,28,07,30,1.60
2015,08,28,07,33,1.60
2015,08,28,07,37,1.60
2015,08,28,07,38,3.20
2015,08,28,07,39,3.20
2015,08,28,07,41,1.60
2015,08,28,07,44,3.20
2015,08,28,07,45,3.20
2015,08,28,07,46,1.60
2015,08,28,07,48,1.60
2015,08,28,07,49,1.60
2015,08,28,07,50,3.20
2015,08,28,07,51,1.60
2015,08,28,07,52,1.60
2015,08,28,07,53,1.60
2015,08,28,07,54,1.60
2015,08,28,07,55,1.60
2015,08,28,07,56,1.60
2015,08,28,07,57,1.60
2015,08,28,07,58,4.80
2015,08,28,07,59,4.80
2015,08,28,08,00,3.20
2015,08,28,08,01,3.20
2015,08,28,08,02,4.80
2015,08,28,08,03,4.80
2015,08,28,08,04,4.80
2015,08,28,08,05,3.20
2015,08,28,08,06,1.60
2015,08,28,08,07,3.20
2015,08,28,08,08,4.80
2015,08,28,08,09,3.20
2015,08,28,08,10,3.20
2015,08,28,08,11,4.80
2015,08,28,08,12,6.40
2015,08,28,08,13,6.40
2015,08,28,08,14,3.20
2015,08,28,08,15,4.80
2015,08,28,08,16,8.10
2015,08,28,08,17,6.40
2015,08,28,08,18,8.10
2015,08,28,08,19,8.10
2015,08,28,08,20,6.40
2015,08,28,08,21,8.10
2015,08,28,08,22,9.60
2015,08,28,08,23,11.30
2015,08,28,08,24,9.60
2015,08,28,08,25,8.10
2015,08,28,08,26,6.40
2015,08,28,08,27,6.40
2015,08,28,08,28,6.40
2015,08,28,08,29,6.40
2015,08,28,08,30,6.40
2015,08,28,08,31,8.10
2015,08,28,08,32,9.60
2015,08,28,08,33,8.10
2015,08,28,08,34,9.60
2015,08,28,08,35,4.80
2015,08,28,08,36,6.40
2015,08,28,08,37,6.40
2015,08,28,08,38,6.40
2015,08,28,08,39,3.20
2015,08,28,08,40,8.10
2015,08,28,08,41,8.10
2015,08,28,08,42,6.40
2015,08,28,08,43,6.40
2015,08,28,08,44,6.40
2015,08,28,08,45,9.60
2015,08,28,08,46,9.60
2015,08,28,08,47,9.60
2015,08,28,08,48,9.60
2015,08,28,08,49,9.60
2015,08,28,08,50,8.10
2015,08,28,08,51,6.40
2015,08,28,08,52,6.40
2015,08,28,08,53,4.80
2015,08,28,08,54,4.80
2015,08,28,08,55,6.40
2015,08,28,08,56,4.80
2015,08,28,08,57,3.20
2015,08,28,08,58,1.60
2015,08,28,08,59,6.40
2015,08,28,09,00,4.80
2015,08,28,09,01,6.40
2015,08,28,09,02,9.60
2015,08,28,09,03,8.10
2015,08,28,09,04,4.80
2015,08,28,09,05,3.20
2015,08,28,09,06,1.60
2015,08,28,09,07,3.20
2015,08,28,09,08,1.60
2015,08,28,09,09,3.20
2015,08,28,09,10,3.20
2015,08,28,09,11,3.20
2015,08,28,09,12,3.20
2015,08,28,09,13,4.80
2015,08,28,09,14,4.80
2015,08,28,09,15,3.20
2015,08,28,09,16,3.20
2015,08,28,09,17,3.20
2015,08,28,09,18,1.60
2015,08,28,09,19,1.60
2015,08,28,09,21,4.80
2015,08,28,09,22,4.80
2015,08,28,09,23,6.40
2015,08,28,09,24,3.20
2015,08,28,09,25,3.20
2015,08,28,09,26,4.80
2015,08,28,09,27,6.40
2015,08,28,09,28,4.80
2015,08,28,09,29,4.80
2015,08,28,09,30,4.80
2015,08,28,09,31,3.20
2015,08,28,09,32,3.20
2015,08,28,09,33,3.20
2015,08,28,09,34,1.60
2015,08,28,09,35,3.20
2015,08,28,09,42,4.80
2015,08,28,09,43,4.80
2015,08,28,09,44,1.60
2015,08,28,09,45,1.60
2015,08,28,09,46,1.60
2015,08,28,09,47,3.20
2015,08,28,09,48,3.20
2015,08,28,09,49,1.60
2015,08,28,09,50,6.40
2015,08,28,09,51,4.80
2015,08,28,09,52,1.60
2015,08,28,09,53,1.60
2015,08,28,09,54,1.60
2015,08,28,09,56,1.60
2015,08,28,09,57,1.60
2015,08,28,09,58,1.60
2015,08,28,09,59,1.60
2015,08,28,10,01,1.60
2015,08,28,10,02,1.60
2015,08,28,10,03,1.60
2015,08,28,10,04,1.60
2015,08,28,10,05,1.60
2015,08,28,10,06,1.60
2015,08,28,10,07,4.80
2015,08,28,10,08,1.60
2015,08,28,10,09,1.60
2015,08,28,10,10,1.60
2015,08,28,10,12,4.80
2015,08,28,10,13,3.20
2015,08,28,10,14,1.60
2015,08,28,10,15,1.60
2015,08,28,10,16,1.60
2015,08,28,10,17,1.60
2015,08,28,10,18,4.80
2015,08,28,10,19,4.80
2015,08,28,10,20,3.20
2015,08,28,10,21,1.60
2015,08,28,10,22,1.60
2015,08,28,10,24,1.60
2015,08,28,10,25,4.80
2015,08,28,10,26,3.20
2015,08,28,10,29,3.20
2015,08,28,10,30,4.80
2015,08,28,10,31,3.20
2015,08,28,10,32,4.80
2015,08,28,10,33,4.80
2015,08,28,10,34,4.80
2015,08,28,10,35,8.10
2015,08,28,10,36,8.10
2015,08,28,10,37,6.40
2015,08,28,10,38,6.40
2015,08,28,10,39,1.60
2015,08,28,10,40,1.60
2015,08,28,10,41,4.80
2015,08,28,10,42,6.40
2015,08,28,10,43,6.40
2015,08,28,10,44,3.20
2015,08,28,10,45,1.60
2015,08,28,10,47,3.20
2015,08,28,10,48,8.10
2015,08,28,10,49,4.80
2015,08,28,10,50,6.40
2015,08,28,10,51,3.20
2015,08,28,10,53,3.20
2015,08,28,10,55,1.60
2015,08,28,10,56,1.60
2015,08,28,10,57,1.60
2015,08,28,10,58,3.20
2015,08,28,10,59,1.60
2015,08,28,11,00,1.60
2015,08,28,11,01,1.60
2015,08,28,11,02,1.60
2015,08,28,11,03,8.10
2015,08,28,11,04,6.40
2015,08,28,11,05,4.80
2015,08,28,11,06,4.80
2015,08,28,11,07,3.20
2015,08,28,11,08,3.20
2015,08,28,11,09,4.80
2015,08,28,11,10,4.80
2015,08,28,11,11,6.40
2015,08,28,11,12,6.40
2015,08,28,11,13,4.80
2015,08,28,11,14,1.60
2015,08,28,11,15,1.60
2015,08,28,11,16,3.20
2015,08,28,11,17,9.60
2015,08,28,11,18,8.10
2015,08,28,11,19,4.80
2015,08,28,11,20,4.80
2015,08,28,11,21,9.60
2015,08,28,11,22,11.30
2015,08,28,11,23,8.10
2015,08,28,11,24,3.20
2015,08,28,11,27,6.40
2015,08,28,11,28,11.30
2015,08,28,11,29,14.50
2015,08,28,11,30,8.10
2015,08,28,11,31,6.40
2015,08,28,11,32,8.10
2015,08,28,11,33,8.10
2015,08,28,11,34,4.80
2015,08,28,11,35,6.40
2015,08,28,11,36,6.40
2015,08,28,11,37,4.80
2015,08,28,11,38,4.80
2015,08,28,11,39,6.40
2015,08,28,11,40,8.10
2015,08,28,11,41,6.40
2015,08,28,11,42,6.40
2015,08,28,11,43,6.40
2015,08,28,11,44,6.40
2015,08,28,11,45,11.30
2015,08,28,11,46,11.30
2015,08,28,11,47,11.30
2015,08,28,11,48,11.30
2015,08,28,11,49,9.60
2015,08,28,11,50,11.30
2015,08,28,11,51,16.10
2015,08,28,11,52,11.30
2015,08,28,11,53,6.40
2015,08,28,11,54,16.10
2015,08,28,11,55,9.60
2015,08,28,11,56,8.10
2015,08,28,11,57,11.30
2015,08,28,11,58,9.60
2015,08,28,11,59,11.30
2015,08,28,12,00,14.50
2015,08,28,12,01,17.70
2015,08,28,12,02,16.10
2015,08,28,12,03,11.30
2015,08,28,12,04,12.90
2015,08,28,12,05,11.30
2015,08,28,12,06,11.30
2015,08,28,12,07,14.50
2015,08,28,12,08,14.50
2015,08,28,12,09,14.50
2015,08,28,12,10,9.60
2015,08,28,12,11,14.50
2015,08,28,12,12,17.70
2015,08,28,12,13,9.60
2015,08,28,12,14,6.40
2015,08,28,12,15,8.10
2015,08,28,12,16,8.10
2015,08,28,12,17,16.10
2015,08,28,12,18,14.50
2015,08,28,12,19,12.90
2015,08,28,12,20,16.10
2015,08,28,12,21,16.10
2015,08,28,12,22,11.30
2015,08,28,12,23,16.10
2015,08,28,12,24,14.50
2015,08,28,12,25,14.50
2015,08,28,12,26,9.60
2015,08,28,12,27,11.30
2015,08,28,12,28,17.70
2015,08,28,12,29,16.10
2015,08,28,12,30,16.10
2015,08,28,12,31,11.30
2015,08,28,12,32,12.90
2015,08,28,12,33,16.10
2015,08,28,12,34,19.30
2015,08,28,12,35,16.10
2015,08,28,12,36,17.70
2015,08,28,12,37,14.50
2015,08,28,12,38,16.10
2015,08,28,12,39,17.70
2015,08,28,12,40,17.70
2015,08,28,12,41,16.10
2015,08,28,12,42,14.50
2015,08,28,12,43,17.70
2015,08,28,12,44,17.70
2015,08,28,12,45,17.70
2015,08,28,12,46,19.30
2015,08,28,12,47,11.30
2015,08,28,12,48,17.70
2015,08,28,12,49,12.90
2015,08,28,12,50,16.10
2015,08,28,12,51,14.50
2015,08,28,12,52,11.30
2015,08,28,12,53,14.50
2015,08,28,12,54,19.30
2015,08,28,12,55,17.70
2015,08,28,12,56,19.30
2015,08,28,12,57,17.70
2015,08,28,12,58,17.70
2015,08,28,12,59,17.70
2015,08,28,13,00,14.50
2015,08,28,13,01,14.50
2015,08,28,13,02,16.10
2015,08,28,13,03,16.10
2015,08,28,13,04,14.50
2015,08,28,13,05,14.50
2015,08,28,13,06,16.10
2015,08,28,13,07,17.70
2015,08,28,13,08,20.90
2015,08,28,13,09,17.70
2015,08,28,13,10,17.70
2015,08,28,13,11,17.70
2015,08,28,13,12,20.90
2015,08,28,13,13,20.90
2015,08,28,13,14,22.50
2015,08,28,13,15,20.90
2015,08,28,13,16,19.30
2015,08,28,13,17,17.70
2015,08,28,13,18,16.10
2015,08,28,13,19,16.10
2015,08,28,13,20,16.10
2015,08,28,13,21,16.10
2015,08,28,13,22,16.10
2015,08,28,13,23,17.70
2015,08,28,13,24,11.30
2015,08,28,13,25,11.30
2015,08,28,13,26,14.50
2015,08,28,13,27,9.60
2015,08,28,13,28,9.60
2015,08,28,13,29,16.10
2015,08,28,13,30,16.10
2015,08,28,13,31,17.70
2015,08,28,13,32,17.70
2015,08,28,13,33,16.10
2015,08,28,13,34,9.60
2015,08,28,13,35,14.50
2015,08,28,13,36,16.10
2015,08,28,13,37,16.10
2015,08,28,13,38,9.60
2015,08,28,13,39,11.30
2015,08,28,13,40,11.30
2015,08,28,13,41,16.10
2015,08,28,13,42,12.90
2015,08,28,13,43,14.50
2015,08,28,13,44,11.30
2015,08,28,13,45,9.60
2015,08,28,13,46,14.50
2015,08,28,13,47,9.60
2015,08,28,13,48,11.30
2015,08,28,13,49,16.10
2015,08,28,13,50,14.50
2015,08,28,13,51,19.30
2015,08,28,13,52,16.10
2015,08,28,13,53,17.70
2015,08,28,13,54,11.30
2015,08,28,13,55,16.10
2015,08,28,13,56,11.30
2015,08,28,13,57,11.30
2015,08,28,13,58,12.90
2015,08,28,13,59,9.60
2015,08,28,14,00,14.50
2015,08,28,14,01,16.10
2015,08,28,14,02,16.10
2015,08,28,14,03,14.50
2015,08,28,14,04,8.10
2015,08,28,14,05,11.30
2015,08,28,14,06,17.70
2015,08,28,14,07,17.70
2015,08,28,14,08,17.70
2015,08,28,14,09,19.30
2015,08,28,14,10,19.30
2015,08,28,14,11,11.30
2015,08,28,14,12,16.10
2015,08,28,14,13,8.10
2015,08,28,14,14,6.40
2015,08,28,14,15,11.30
2015,08,28,14,16,11.30
2015,08,28,14,17,9.60
2015,08,28,14,18,11.30
2015,08,28,14,19,14.50
2015,08,28,14,20,11.30
2015,08,28,14,21,11.30
2015,08,28,14,22,11.30
2015,08,28,14,23,8.10
2015,08,28,14,24,14.50
2015,08,28,14,25,16.10
2015,08,28,14,26,9.60
2015,08,28,14,27,17.70
2015,08,28,14,28,17.70
2015,08,28,14,29,14.50
2015,08,28,14,30,11.30
2015,08,28,14,31,19.30
2015,08,28,14,32,12.90
2015,08,28,14,33,12.90
2015,08,28,14,34,16.10
2015,08,28,14,35,14.50
2015,08,28,14,36,16.10
2015,08,28,14,37,11.30
2015,08,28,14,38,12.90
2015,08,28,14,39,16.10
2015,08,28,14,40,16.10
2015,08,28,14,41,14.50
2015,08,28,14,42,16.10
2015,08,28,14,43,8.10
2015,08,28,14,44,16.10
2015,08,28,14,45,11.30
2015,08,28,14,46,11.30
2015,08,28,14,47,11.30
2015,08,28,14,48,16.10
2015,08,28,14,49,16.10
2015,08,28,14,50,9.60
2015,08,28,14,51,11.30
2015,08,28,14,52,14.50
2015,08,28,14,53,16.10
2015,08,28,14,54,16.10
2015,08,28,14,55,14.50
2015,08,28,14,56,8.10
2015,08,28,14,57,8.10
2015,08,28,14,58,8.10
2015,08,28,14,59,11.30
2015,08,28,15,00,11.30
2015,08,28,15,01,14.50
2015,08,28,15,02,14.50
2015,08,28,15,03,14.50
2015,08,28,15,04,12.90
2015,08,28,15,05,8.10
2015,08,28,15,06,11.30
2015,08,28,15,07,12.90
2015,08,28,15,08,16.10
2015,08,28,15,09,8.10
2015,08,28,15,10,14.50
2015,08,28,15,11,11.30
2015,08,28,15,12,8.10
2015,08,28,15,13,11.30
2015,08,28,15,14,9.60
2015,08,28,15,15,14.50
2015,08,28,15,16,11.30
2015,08,28,15,17,14.50
2015,08,28,15,18,9.60
2015,08,28,15,19,8.10
2015,08,28,15,20,8.10
2015,08,28,15,21,8.10
2015,08,28,15,22,14.50
2015,08,28,15,23,14.50
2015,08,28,15,24,14.50
2015,08,28,15,25,12.90
2015,08,28,15,26,16.10
2015,08,28,15,27,14.50
2015,08,28,15,28,8.10
2015,08,28,15,29,11.30
2015,08,28,15,30,8.10
2015,08,28,15,31,12.90
2015,08,28,15,32,9.60
2015,08,28,15,33,6.40
2015,08,28,15,34,14.50
2015,08,28,15,35,11.30
2015,08,28,15,36,9.60
2015,08,28,15,37,8.10
2015,08,28,15,38,16.10
2015,08,28,15,39,14.50
2015,08,28,15,40,11.30
2015,08,28,15,41,8.10
2015,08,28,15,42,8.10
2015,08,28,15,43,9.60
2015,08,28,15,44,14.50
2015,08,28,15,45,16.10
2015,08,28,15,46,12.90
2015,08,28,15,47,16.10
2015,08,28,15,48,16.10
2015,08,28,15,49,14.50
2015,08,28,15,50,12.90
2015,08,28,15,51,8.10
2015,08,28,15,52,8.10
2015,08,28,15,53,9.60
2015,08,28,15,54,14.50
2015,08,28,15,55,11.30
2015,08,28,15,56,16.10
2015,08,28,15,57,12.90
2015,08,28,15,58,11.30
2015,08,28,15,59,9.60
2015,08,28,16,00,11.30
2015,08,28,16,01,14.50
2015,08,28,16,02,9.60
2015,08,28,16,03,16.10
2015,08,28,16,04,16.10
2015,08,28,16,05,16.10
2015,08,28,16,06,9.60
2015,08,28,16,07,8.10
2015,08,28,16,08,8.10
2015,08,28,16,09,8.10
2015,08,28,16,10,9.60
2015,08,28,16,11,16.10
2015,08,28,16,12,16.10
2015,08,28,16,13,11.30
2015,08,28,16,14,12.90
2015,08,28,16,15,11.30
2015,08,28,16,16,9.60
2015,08,28,16,17,16.10
2015,08,28,16,18,14.50
2015,08,28,16,19,14.50
2015,08,28,16,20,8.10
2015,08,28,16,21,17.70
2015,08,28,16,22,12.90
2015,08,28,16,23,8.10
2015,08,28,16,24,11.30
2015,08,28,16,25,17.70
2015,08,28,16,26,12.90
2015,08,28,16,27,14.50
2015,08,28,16,28,11.30
2015,08,28,16,29,14.50
2015,08,28,16,30,11.30
2015,08,28,16,31,12.90
2015,08,28,16,32,11.30
2015,08,28,16,33,8.10
2015,08,28,16,34,11.30
2015,08,28,16,35,9.60
2015,08,28,16,36,11.30
2015,08,28,16,37,11.30
2015,08,28,16,38,11.30
2015,08,28,16,39,14.50
2015,08,28,16,40,14.50
2015,08,28,16,41,14.50
2015,08,28,16,42,17.70
2015,08,28,16,43,9.60
2015,08,28,16,44,8.10
2015,08,28,16,45,11.30
2015,08,28,16,46,11.30
2015,08,28,16,47,16.10
2015,08,28,16,48,14.50
2015,08,28,16,49,9.60
2015,08,28,16,50,11.30
2015,08,28,16,51,11.30
2015,08,28,16,52,6.40
2015,08,28,16,53,8.10
2015,08,28,16,54,11.30
2015,08,28,16,55,11.30
2015,08,28,16,56,14.50
2015,08,28,16,57,12.90
2015,08,28,16,58,11.30
2015,08,28,16,59,8.10
2015,08,28,17,00,6.40
2015,08,28,17,01,8.10
2015,08,28,17,02,4.80
2015,08,28,17,03,11.30
2015,08,28,17,04,14.50
2015,08,28,17,05,14.50
2015,08,28,17,06,17.70
2015,08,28,17,07,8.10
2015,08,28,17,08,8.10
2015,08,28,17,09,17.70
2015,08,28,17,10,17.70
2015,08,28,17,11,14.50
2015,08,28,17,12,11.30
2015,08,28,17,13,9.60
2015,08,28,17,14,16.10
2015,08,28,17,15,9.60
2015,08,28,17,16,9.60
2015,08,28,17,17,9.60
2015,08,28,17,18,17.70
2015,08,28,17,19,14.50
2015,08,28,17,20,14.50
2015,08,28,17,21,9.60
2015,08,28,17,22,9.60
2015,08,28,17,23,9.60
2015,08,28,17,24,11.30
2015,08,28,17,25,11.30
2015,08,28,17,26,16.10
2015,08,28,17,27,11.30
2015,08,28,17,28,14.50
2015,08,28,17,29,17.70
2015,08,28,17,30,19.30
2015,08,28,17,31,14.50
2015,08,28,17,32,14.50
2015,08,28,17,33,17.70
2015,08,28,17,34,16.10
2015,08,28,17,35,16.10
2015,08,28,17,36,14.50
2015,08,28,17,37,6.40
2015,08,28,17,38,14.50
2015,08,28,17,39,11.30
2015,08,28,17,40,14.50
2015,08,28,17,41,11.30
2015,08,28,17,42,9.60
2015,08,28,17,43,14.50
2015,08,28,17,44,14.50
2015,08,28,17,45,14.50
2015,08,28,17,46,14.50
2015,08,28,17,47,16.10
2015,08,28,17,48,9.60
2015,08,28,17,49,8.10
2015,08,28,17,50,11.30
2015,08,28,17,51,11.30
2015,08,28,17,52,6.40
2015,08,28,17,53,9.60
2015,08,28,17,54,11.30
2015,08,28,17,55,11.30
2015,08,28,17,56,11.30
2015,08,28,17,57,11.30
2015,08,28,17,58,11.30
2015,08,28,17,59,11.30
2015,08,28,18,00,9.60
2015,08,28,18,01,14.50
2015,08,28,18,02,11.30
2015,08,28,18,03,9.60
2015,08,28,18,04,14.50
2015,08,28,18,05,14.50
2015,08,28,18,06,11.30
2015,08,28,18,07,11.30
2015,08,28,18,08,11.30
2015,08,28,18,09,11.30
2015,08,28,18,10,9.60
2015,08,28,18,11,14.50
2015,08,28,18,12,8.10
2015,08,28,18,13,14.50
2015,08,28,18,14,9.60
2015,08,28,18,15,9.60
2015,08,28,18,16,9.60
2015,08,28,18,17,9.60
2015,08,28,18,18,9.60
2015,08,28,18,19,9.60
2015,08,28,18,20,9.60
2015,08,28,18,21,9.60
2015,08,28,18,22,6.40
2015,08,28,18,23,6.40
2015,08,28,18,24,4.80
2015,08,28,18,25,4.80
2015,08,28,18,26,4.80
2015,08,28,18,27,3.20
2015,08,28,18,28,6.40
2015,08,28,18,29,6.40
2015,08,28,18,30,8.10
2015,08,28,18,31,6.40
2015,08,28,18,32,6.40
2015,08,28,18,33,4.80
2015,08,28,18,34,3.20
2015,08,28,18,35,3.20
2015,08,28,18,36,3.20
2015,08,28,18,37,3.20
2015,08,28,18,38,3.20
2015,08,28,18,39,3.20
2015,08,28,18,40,1.60
2015,08,28,18,41,1.60
2015,08,28,18,42,4.80
2015,08,28,18,43,4.80
2015,08,28,18,44,3.20
2015,08,28,18,45,3.20
2015,08,28,18,46,1.60
2015,08,28,18,47,1.60
2015,08,28,18,48,3.20
2015,08,28,18,49,4.80
2015,08,28,18,50,4.80
2015,08,28,18,51,4.80
2015,08,28,18,52,4.80
2015,08,28,18,53,4.80
2015,08,28,18,54,3.20
2015,08,28,18,55,4.80
2015,08,28,18,56,4.80
2015,08,28,18,57,6.40
2015,08,28,18,58,4.80
2015,08,28,18,59,4.80
2015,08,28,19,00,6.40
2015,08,28,19,01,8.10
2015,08,28,19,02,6.40
2015,08,28,19,03,8.10
2015,08,28,19,04,4.80
2015,08,28,19,05,6.40
2015,08,28,19,06,4.80
2015,08,28,19,07,4.80
2015,08,28,19,08,4.80
2015,08,28,19,09,4.80
2015,08,28,19,10,3.20
2015,08,28,19,11,1.60
2015,08,28,19,12,4.80
2015,08,28,19,13,3.20
2015,08,28,19,14,4.80
2015,08,28,19,15,3.20
2015,08,28,19,16,4.80
2015,08,28,19,17,4.80
2015,08,28,19,18,4.80
2015,08,28,19,19,3.20
2015,08,28,19,20,4.80
2015,08,28,19,21,3.20
2015,08,28,19,22,3.20
2015,08,28,19,23,1.60
2015,08,28,19,24,1.60
2015,08,28,19,25,1.60
2015,08,28,19,26,1.60
2015,08,28,19,27,4.80
2015,08,28,19,28,1.60
2015,08,28,19,29,1.60
2015,08,28,19,31,1.60
2015,08,28,19,34,1.60
2015,08,28,19,35,1.60
2015,08,28,19,36,1.60
2015,08,28,19,37,1.60
2015,08,28,19,38,1.60
2015,08,28,19,42,1.60
2015,08,28,19,49,1.60
2015,08,28,19,50,3.20
2015,08,28,19,51,1.60
2015,08,28,19,53,1.60
2015,08,28,19,54,3.20
2015,08,28,19,55,3.20
2015,08,28,19,57,1.60
2015,08,28,19,59,1.60
2015,08,28,20,00,1.60
2015,08,28,20,01,3.20
2015,08,28,20,02,3.20
2015,08,28,20,03,1.60
2015,08,28,20,05,3.20
2015,08,28,20,06,3.20
2015,08,28,20,08,1.60
2015,08,28,20,11,3.20
2015,08,28,20,12,3.20
2015,08,28,20,13,1.60
2015,08,28,20,23,1.60
2015,08,28,20,25,3.20
2015,08,28,20,26,3.20
2015,08,28,20,27,3.20
2015,08,28,20,28,1.60
2015,08,28,20,29,3.20
2015,08,28,20,30,4.80
2015,08,28,20,31,3.20
2015,08,28,20,32,1.60
2015,08,28,20,33,1.60
2015,08,28,20,34,3.20
2015,08,28,20,35,1.60
2015,08,28,20,37,1.60
2015,08,28,20,38,1.60
2015,08,28,20,39,1.60
2015,08,28,20,40,1.60
2015,08,28,20,41,1.60
2015,08,28,20,47,1.60
2015,08,28,20,52,1.60
2015,08,28,20,53,1.60
2015,08,28,20,54,1.60
2015,08,28,20,55,1.60
2015,08,28,20,58,1.60
2015,08,28,20,59,1.60
2015,08,28,21,00,1.60
2015,08,28,21,01,3.20
2015,08,28,21,02,1.60
2015,08,28,21,03,1.60
2015,08,28,21,04,1.60
2015,08,28,21,05,1.60
2015,08,28,21,06,1.60
2015,08,28,21,07,1.60
2015,08,28,21,08,1.60
2015,08,28,21,09,1.60